• în Republica Moldova
  • Lista ţărilor
  • Pe 7 zile
  • Temperatura apei
  • Hartă satelitară
  • Meteo pe hartă
  • Widget-uri
  • user-avatar
    Intrare

    Meteo pe oră la Algiers

    Astăzi, 21 Februarie, Marţi

    Timp Temperatura Precipitaţii Vânt Presiune Umiditate
    00:00 +8°C° 0 mm 6 m/s 753 mmHg 86%
    01:00 +8°C° 0 mm 6 m/s 753 mmHg 86%
    02:00 +8°C° 0 mm 6 m/s 753 mmHg 85%
    03:00 +7°C° 0 mm 5 m/s 753 mmHg 85%
    04:00 +7°C° 0 mm 6 m/s 753 mmHg 84%
    05:00 +7°C° 0 mm 6 m/s 753 mmHg 83%
    06:00 +7°C° 0 mm 6 m/s 752 mmHg 83%
    07:00 +10°C° 0 mm 6 m/s 753 mmHg 75%
    08:00 +13°C° 0 mm 6 m/s 753 mmHg 67%
    09:00 +16°C° 0 mm 6 m/s 753 mmHg 59%
    10:00 +17°C° 0 mm 6 m/s 753 mmHg 55%
    11:00 +20°C° 0 mm 6 m/s 752 mmHg 52%
    12:00 +21°C° 0 mm 6 m/s 752 mmHg 48%
    13:00 +21°C° 0 mm 6 m/s 752 mmHg 50%
    14:00 +21°C° 0 mm 6 m/s 751 mmHg 52%
    15:00 +21°C° 0 mm 7 m/s 751 mmHg 54%
    16:00 +18°C° 0 mm 7 m/s 751 mmHg 63%
    17:00 +15°C° 0 mm 6 m/s 751 mmHg 72%
    18:00 +11°C° 0 mm 6 m/s 751 mmHg 81%
    19:00 +11°C° 0 mm 6 m/s 751 mmHg 78%
    20:00 +11°C° 0 mm 6 m/s 751 mmHg 75%
    21:00 +11°C° 0 mm 6 m/s 752 mmHg 72%
    22:00 +11°C° 0 mm 6 m/s 752 mmHg 69%
    23:00 +11°C° 0 mm 6 m/s 752 mmHg 66%

    Mâine, 22 Februarie, Miercuri

    Timp Temperatura Precipitaţii Vânt Presiune Umiditate
    00:00 +11°C° 0 mm 6 m/s 752 mmHg 62%
    01:00 +11°C° 0 mm 6 m/s 752 mmHg 62%
    02:00 +12°C° 0 mm 5 m/s 752 mmHg 62%
    03:00 +13°C° 0 mm 5 m/s 752 mmHg 62%
    04:00 +12°C° 0 mm 5 m/s 752 mmHg 63%
    05:00 +12°C° 0 mm 5 m/s 752 mmHg 64%
    06:00 +12°C° 0 mm 5 m/s 751 mmHg 66%
    07:00 +14°C° 0 mm 5 m/s 752 mmHg 65%
    08:00 +15°C° 0 mm 4 m/s 752 mmHg 63%
    09:00 +18°C° 0 mm 4 m/s 752 mmHg 62%
    10:00 +19°C° 0 mm 4 m/s 752 mmHg 61%
    11:00 +20°C° 0 mm 4 m/s 751 mmHg 59%
    12:00 +22°C° 0 mm 4 m/s 751 mmHg 57%
    13:00 +23°C° 0,1 mm 4 m/s 751 mmHg 55%
    14:00 +23°C° 0,1 mm 5 m/s 750 mmHg 52%
    15:00 +25°C° 0,1 mm 5 m/s 749 mmHg 49%
    16:00 +22°C° 0,1 mm 5 m/s 749 mmHg 56%
    17:00 +20°C° 0,1 mm 5 m/s 749 mmHg 64%
    18:00 +16°C° 0,1 mm 6 m/s 750 mmHg 71%
    19:00 +16°C° 0,1 mm 5 m/s 750 mmHg 69%
    20:00 +16°C° 0,1 mm 5 m/s 750 mmHg 66%
    21:00 +17°C° 0,1 mm 4 m/s 750 mmHg 64%
    22:00 +17°C° 0 mm 4 m/s 750 mmHg 65%
    23:00 +17°C° 0 mm 4 m/s 750 mmHg 66%

    Poimâine, 23 Februarie, Joi

    Timp Temperatura Precipitaţii Vânt Presiune Umiditate
    00:00 +17°C° 0 mm 4 m/s 750 mmHg 66%
    01:00 +17°C° 0,1 mm 3 m/s 749 mmHg 68%
    02:00 +16°C° 0,1 mm 3 m/s 749 mmHg 69%
    03:00 +16°C° 0,1 mm 3 m/s 749 mmHg 70%
    04:00 +16°C° 0 mm 3 m/s 748 mmHg 71%
    05:00 +15°C° 0 mm 4 m/s 748 mmHg 71%
    06:00 +14°C° 0 mm 4 m/s 748 mmHg 72%
    07:00 +15°C° 0,1 mm 4 m/s 748 mmHg 72%
    08:00 +17°C° 0,1 mm 4 m/s 749 mmHg 73%
    09:00 +18°C° 0,1 mm 4 m/s 749 mmHg 73%
    10:00 +19°C° 0,1 mm 4 m/s 748 mmHg 66%
    11:00 +21°C° 0,1 mm 3 m/s 748 mmHg 60%
    12:00 +24°C° 0,1 mm 3 m/s 747 mmHg 54%
    13:00 +22°C° 0,6 mm 3 m/s 747 mmHg 62%
    14:00 +20°C° 0,6 mm 3 m/s 747 mmHg 70%
    15:00 +19°C° 0,6 mm 2 m/s 746 mmHg 78%
    16:00 +18°C° 1,1 mm 3 m/s 746 mmHg 81%
    17:00 +17°C° 1,1 mm 3 m/s 746 mmHg 85%
    18:00 +16°C° 1,1 mm 3 m/s 746 mmHg 88%
    19:00 +14°C° 1,5 mm 3 m/s 746 mmHg 90%
    20:00 +14°C° 1,5 mm 3 m/s 746 mmHg 92%
    21:00 +13°C° 1,5 mm 3 m/s 747 mmHg 94%
    22:00 +14°C° 0,4 mm 2 m/s 746 mmHg 94%
    23:00 +14°C° 0,4 mm 2 m/s 746 mmHg 94%

    24 Februarie, Vineri

    Timp Temperatura Precipitaţii Vânt Presiune Umiditate
    00:00 +13°C° 0,4 mm 1 m/s 746 mmHg 94%
    01:00 +13°C° 0,1 mm 1 m/s 746 mmHg 95%
    02:00 +13°C° 0,1 mm 2 m/s 746 mmHg 96%
    03:00 +12°C° 0,1 mm 2 m/s 746 mmHg 96%
    04:00 +13°C° 0,2 mm 2 m/s 747 mmHg 96%
    05:00 +12°C° 0,2 mm 3 m/s 747 mmHg 95%
    06:00 +13°C° 0,2 mm 3 m/s 747 mmHg 95%
    07:00 +13°C° 0,1 mm 3 m/s 748 mmHg 91%
    08:00 +14°C° 0,1 mm 3 m/s 748 mmHg 88%
    09:00 +15°C° 0,1 mm 4 m/s 749 mmHg 85%
    10:00 +17°C° 0 mm 4 m/s 749 mmHg 79%
    11:00 +18°C° 0 mm 4 m/s 749 mmHg 74%
    12:00 +19°C° 0 mm 4 m/s 749 mmHg 69%
    13:00 +19°C° 0,1 mm 4 m/s 749 mmHg 71%
    14:00 +18°C° 0,1 mm 4 m/s 748 mmHg 73%
    15:00 +18°C° 0,1 mm 4 m/s 748 mmHg 75%
    16:00 +17°C° 0,1 mm 4 m/s 749 mmHg 82%
    17:00 +16°C° 0,1 mm 3 m/s 749 mmHg 88%
    18:00 +14°C° 0,1 mm 2 m/s 750 mmHg 94%
    19:00 +14°C° 0,2 mm 2 m/s 750 mmHg 95%
    20:00 +14°C° 0,2 mm 2 m/s 751 mmHg 95%
    21:00 +14°C° 0,2 mm 1 m/s 752 mmHg 96%
    22:00 +14°C° 0 mm 1 m/s 752 mmHg 95%
    23:00 +14°C° 0 mm 1 m/s 752 mmHg 95%

    25 Februarie, Sâmbătă

    Timp Temperatura Precipitaţii Vânt Presiune Umiditate
    00:00 +14°C° 0 mm 1 m/s 752 mmHg 95%
    01:00 +14°C° 0,1 mm 2 m/s 752 mmHg 96%
    02:00 +13°C° 0,1 mm 2 m/s 752 mmHg 96%
    03:00 +13°C° 0,1 mm 2 m/s 753 mmHg 96%
    04:00 +13°C° 0 mm 2 m/s 753 mmHg 96%
    05:00 +13°C° 0 mm 2 m/s 753 mmHg 97%
    06:00 +13°C° 0 mm 2 m/s 754 mmHg 97%
    07:00 +14°C° 0 mm 2 m/s 754 mmHg 94%
    08:00 +15°C° 0 mm 2 m/s 754 mmHg 90%
    09:00 +15°C° 0 mm 2 m/s 755 mmHg 87%
    10:00 +16°C° 0 mm 2 m/s 755 mmHg 82%
    11:00 +17°C° 0 mm 2 m/s 755 mmHg 76%
    12:00 +18°C° 0 mm 2 m/s 755 mmHg 71%
    13:00 +18°C° 0 mm 2 m/s 755 mmHg 72%
    14:00 +18°C° 0 mm 2 m/s 755 mmHg 72%
    15:00 +18°C° 0 mm 2 m/s 754 mmHg 73%
    16:00 +16°C° 0 mm 2 m/s 754 mmHg 80%
    17:00 +14°C° 0 mm 2 m/s 755 mmHg 86%
    18:00 +12°C° 0 mm 2 m/s 755 mmHg 93%
    19:00 +10°C° 0 mm 2 m/s 755 mmHg 94%
    20:00 +10°C° 0 mm 2 m/s 755 mmHg 94%
    21:00 +9°C° 0 mm 2 m/s 756 mmHg 95%
    22:00 +9°C° 0 mm 2 m/s 756 mmHg 94%
    23:00 +9°C° 0 mm 2 m/s 755 mmHg 94%

    26 Februarie, Duminică

    Timp Temperatura Precipitaţii Vânt Presiune Umiditate
    00:00 +10°C° 0 mm 1 m/s 755 mmHg 93%
    01:00 +9°C° 0 mm 1 m/s 755 mmHg 93%
    02:00 +9°C° 0 mm 1 m/s 755 mmHg 92%
    03:00 +9°C° 0 mm 1 m/s 755 mmHg 91%
    04:00 +9°C° 0 mm 1 m/s 755 mmHg 91%
    05:00 +8°C° 0 mm 2 m/s 755 mmHg 90%
    06:00 +8°C° 0 mm 2 m/s 755 mmHg 89%
    07:00 +10°C° 0 mm 2 m/s 755 mmHg 81%
    08:00 +14°C° 0 mm 2 m/s 755 mmHg 72%
    09:00 +18°C° 0 mm 1 m/s 755 mmHg 64%
    10:00 +18°C° 0 mm 2 m/s 755 mmHg 59%
    11:00 +19°C° 0 mm 2 m/s 755 mmHg 55%
    12:00 +20°C° 0 mm 2 m/s 754 mmHg 50%
    13:00 +20°C° 0 mm 3 m/s 754 mmHg 53%
    14:00 +20°C° 0 mm 3 m/s 753 mmHg 56%
    15:00 +20°C° 0 mm 3 m/s 753 mmHg 59%
    16:00 +17°C° 0 mm 3 m/s 753 mmHg 69%
    17:00 +14°C° 0 mm 3 m/s 753 mmHg 79%
    18:00 +11°C° 0 mm 3 m/s 753 mmHg 89%
    19:00 +11°C° 0 mm 3 m/s 753 mmHg 89%
    20:00 +10°C° 0 mm 2 m/s 753 mmHg 89%
    21:00 +10°C° 0 mm 2 m/s 753 mmHg 89%
    22:00 +10°C° 0 mm 2 m/s 752 mmHg 87%
    23:00 +10°C° 0 mm 2 m/s 752 mmHg 85%
    Arată mai mult